Location: Rounton
(54.4000°N, 1.3500°W)
Time: 15:11:16
(UTC+00:00)

Transit 2A - Pass Details

Date: 04 December 2021
Orbit: 591 x 967 km, 66.7° (Epoch: 21 January)

Event Time Altitude Azimuth Distance (km) Brightness Sun altitude
Rises 07:17:05 0° 315° (NW) 3,632 - -6.9°
Exits shadow 07:18:47 - 318° (NW) 3,027 8.5 -6.7°
Reaches altitude 10° 07:19:42 10° 320° (NW) 2,704 8.2 -6.6°
Maximum altitude 07:26:01 60° 39° (NE) 1,106 6.9 -5.8°
Drops below altitude 10° 07:32:15 10° 120° (ESE) 2,663 10.8 -5.0°
Sets 07:34:48 0° 124° (ESE) 3,573 12.6 -4.7°
